| time (UTC) | temp F | wind direction | speed MPH | gust MPH | rain 1hr in | rain 24hr in | rain mn in | humidity % | barometer mb |
| 20260505234417 | 42 | 87 | 3.0 | 8.0 | 0.00 | 0.13 | 0.13 | 90 | 1012.9 |
| 20260505234310 | 42 | 67 | 3.0 | 8.0 | 0.00 | 0.13 | 0.13 | 90 | 1013.0 |
| 20260505233423 | 42 | 65 | 5.0 | 9.0 | 0.00 | 0.13 | 0.13 | 89 | 1012.8 |
| 20260505233316 | 42 | 92 | 5.0 | 9.0 | 0.00 | 0.13 | 0.13 | 89 | 1012.8 |
| 20260505232427 | 42 | 76 | 7.0 | 9.0 | 0.00 | 0.13 | 0.13 | 90 | 1012.6 |
| 20260505232321 | 42 | 76 | 6.0 | 9.0 | 0.00 | 0.13 | 0.13 | 90 | 1012.6 |
| 20260505231433 | 42 | 78 | 7.0 | 11.0 | 0.00 | 0.13 | 0.13 | 89 | 1012.6 |
| 20260505231326 | 42 | 85 | 7.0 | 11.0 | 0.00 | 0.13 | 0.13 | 89 | 1012.6 |
| 20260505230437 | 42 | 107 | 6.0 | 13.0 | 0.00 | 0.13 | 0.13 | 90 | 1012.5 |
| 20260505230328 | 42 | 84 | 7.0 | 13.0 | 0.00 | 0.13 | 0.13 | 89 | 1012.6 |
| 20260505225420 | 42 | 56 | 9.0 | 12.0 | 0.00 | 0.13 | 0.13 | 91 | 1012.4 |
| 20260505225313 | 42 | 77 | 8.0 | 12.0 | 0.00 | 0.13 | 0.13 | 91 | 1012.4 |
| 20260505224445 | 42 | 73 | 8.0 | 12.0 | 0.01 | 0.13 | 0.13 | 90 | 1012.5 |
| 20260505224317 | 42 | 90 | 6.0 | 12.0 | 0.01 | 0.13 | 0.13 | 89 | 1012.5 |
| 20260505223429 | 42 | 78 | 8.0 | 14.0 | 0.02 | 0.13 | 0.13 | 89 | 1012.5 |
| 20260505223342 | 42 | 76 | 10.0 | 14.0 | 0.03 | 0.13 | 0.13 | 89 | 1012.5 |
| 20260505222417 | 42 | 78 | 6.0 | 11.0 | 0.05 | 0.13 | 0.13 | 90 | 1012.7 |
| 20260505222350 | 42 | 106 | 5.0 | 11.0 | 0.05 | 0.13 | 0.13 | 90 | 1012.7 |
| 20260505221440 | 42 | 84 | 6.0 | 11.0 | 0.07 | 0.13 | 0.13 | 90 | 1012.8 |
| 20260505221312 | 42 | 72 | 6.0 | 11.0 | 0.07 | 0.13 | 0.13 | 90 | 1012.8 |
| 20260505220424 | 42 | 78 | 6.0 | 10.0 | 0.08 | 0.13 | 0.13 | 90 | 1012.8 |
| 20260505220317 | 42 | 77 | 5.0 | 10.0 | 0.08 | 0.13 | 0.13 | 90 | 1012.8 |
| 20260505215447 | 42 | 69 | 7.0 | 11.0 | 0.08 | 0.13 | 0.13 | 90 | 1013.1 |
| 20260505215319 | 42 | 61 | 7.0 | 11.0 | 0.08 | 0.13 | 0.13 | 90 | 1013.0 |
| 20260505214412 | 41 | 99 | 7.0 | 10.0 | 0.07 | 0.12 | 0.12 | 89 | 1013.1 |
| 20260505214324 | 41 | 94 | 7.0 | 10.0 | 0.07 | 0.12 | 0.12 | 89 | 1013.1 |
| 20260505213419 | 42 | 79 | 7.0 | 11.0 | 0.07 | 0.11 | 0.11 | 89 | 1013.3 |
| 20260505213311 | 42 | 69 | 7.0 | 11.0 | 0.06 | 0.10 | 0.10 | 88 | 1013.3 |
| 20260505212443 | 42 | 57 | 3.0 | 8.0 | 0.04 | 0.08 | 0.08 | 91 | 1013.3 |
| 20260505212312 | 42 | 76 | 3.0 | 5.0 | 0.04 | 0.08 | 0.08 | 91 | 1013.3 |
| 20260505211424 | 42 | 51 | 4.0 | 7.0 | 0.03 | 0.06 | 0.06 | 88 | 1013.3 |
| 20260505211316 | 42 | 84 | 5.0 | 7.0 | 0.03 | 0.06 | 0.06 | 90 | 1013.3 |
| 20260505210429 | 43 | 71 | 5.0 | 7.0 | 0.02 | 0.05 | 0.05 | 90 | 1013.1 |
| 20260505210322 | 43 | 74 | 5.0 | 8.0 | 0.02 | 0.05 | 0.05 | 90 | 1013.2 |
| 20260505205412 | 43 | 61 | 5.0 | 9.0 | 0.02 | 0.05 | 0.05 | 89 | 1013.3 |
| 20260505205348 | 43 | 57 | 5.0 | 9.0 | 0.02 | 0.05 | 0.05 | 89 | 1013.3 |
| 20260505204419 | 43 | 76 | 4.0 | 9.0 | 0.02 | 0.05 | 0.05 | 90 | 1013.3 |
| 20260505204312 | 43 | 55 | 5.0 | 9.0 | 0.02 | 0.05 | 0.05 | 90 | 1013.3 |
| 20260505203423 | 43 | 75 | 5.0 | 9.0 | 0.02 | 0.04 | 0.04 | 89 | 1013.4 |
| 20260505203316 | 43 | 75 | 5.0 | 9.0 | 0.02 | 0.04 | 0.04 | 89 | 1013.4 |
| 20260505202427 | 43 | 55 | 6.0 | 11.0 | 0.03 | 0.04 | 0.04 | 89 | 1013.6 |
| 20260505202340 | 43 | 59 | 5.0 | 11.0 | 0.03 | 0.04 | 0.04 | 90 | 1013.5 |
| 20260505201449 | 43 | 49 | 7.0 | 10.0 | 0.02 | 0.03 | 0.03 | 88 | 1013.5 |
| 20260505201320 | 43 | 56 | 6.0 | 10.0 | 0.02 | 0.03 | 0.03 | 88 | 1013.4 |
| 20260505200432 | 43 | 79 | 7.0 | 10.0 | 0.02 | 0.03 | 0.03 | 88 | 1013.6 |
| 20260505200326 | 43 | 84 | 6.0 | 10.0 | 0.02 | 0.03 | 0.03 | 88 | 1013.6 |
| 20260505195417 | 43 | 76 | 6.0 | 10.0 | 0.02 | 0.03 | 0.03 | 88 | 1013.8 |
| 20260505195311 | 43 | 84 | 6.0 | 10.0 | 0.02 | 0.03 | 0.03 | 88 | 1013.8 |
| 20260505194423 | 43 | 59 | 6.0 | 11.0 | 0.02 | 0.03 | 0.03 | 88 | 1013.7 |
| 20260505194315 | 43 | 71 | 6.0 | 11.0 | 0.02 | 0.03 | 0.03 | 88 | 1013.7 |
| 20260505193427 | 43 | 67 | 6.0 | 10.0 | 0.01 | 0.02 | 0.02 | 88 | 1013.7 |
| 20260505193320 | 43 | 61 | 7.0 | 10.0 | 0.01 | 0.02 | 0.02 | 88 | 1013.8 |
| 20260505192411 | 43 | 44 | 5.0 | 9.0 | 0.00 | 0.01 | 0.01 | 87 | 1013.7 |
| 20260505192328 | 43 | 71 | 6.0 | 9.0 | 0.00 | 0.01 | 0.01 | 87 | 1013.7 |
| 20260505191441 | 43 | 74 | 7.0 | 10.0 | 0.00 | 0.01 | 0.01 | 87 | 1013.7 |
| 20260505191312 | 43 | 79 | 6.0 | 10.0 | 0.00 | 0.01 | 0.01 | 86 | 1013.7 |
| 20260505190424 | 43 | 61 | 7.0 | 12.0 | 0.00 | 0.01 | 0.01 | 86 | 1013.5 |
| 20260505190317 | 43 | 46 | 6.0 | 12.0 | 0.00 | 0.01 | 0.01 | 86 | 1013.5 |
| 20260505185425 | 43 | 79 | 8.0 | 12.0 | 0.00 | 0.01 | 0.01 | 87 | 1013.6 |
| 20260505185317 | 43 | 76 | 9.0 | 12.0 | 0.00 | 0.01 | 0.01 | 87 | 1013.6 |
| 20260505184429 | 43 | 47 | 7.0 | 11.0 | 0.00 | 0.01 | 0.01 | 87 | 1013.7 |
| 20260505184320 | 43 | 73 | 7.0 | 11.0 | 0.00 | 0.01 | 0.01 | 86 | 1013.7 |
| 20260505183411 | 43 | 69 | 6.0 | 12.0 | 0.00 | 0.01 | 0.01 | 89 | 1013.8 |
| 20260505183329 | 43 | 104 | 6.0 | 12.0 | 0.00 | 0.01 | 0.01 | 89 | 1013.8 |
| 20260505182419 | 43 | 61 | 9.0 | 12.0 | 0.00 | 0.01 | 0.01 | 89 | 1014.1 |
| 20260505182312 | 43 | 61 | 8.0 | 12.0 | 0.00 | 0.01 | 0.01 | 89 | 1014.0 |
| 20260505181444 | 43 | 64 | 7.0 | 11.0 | 0.00 | 0.01 | 0.01 | 88 | 1014.1 |
| 20260505181315 | 43 | 69 | 7.0 | 11.0 | 0.00 | 0.01 | 0.01 | 89 | 1014.1 |
| 20260505180421 | 42 | 65 | 9.0 | 12.0 | 0.00 | 0.01 | 0.01 | 88 | 1014.3 |
| 20260505180312 | 43 | 59 | 8.0 | 12.0 | 0.00 | 0.01 | 0.01 | 88 | 1014.4 |
| 20260505175423 | 42 | 59 | 8.0 | 12.0 | 0.00 | 0.01 | 0.01 | 88 | 1014.3 |
| 20260505175317 | 42 | 58 | 8.0 | 12.0 | 0.00 | 0.01 | 0.01 | 88 | 1014.3 |
| 20260505174429 | 42 | 64 | 8.0 | 12.0 | 0.00 | 0.01 | 0.01 | 88 | 1014.3 |
| 20260505174343 | 42 | 57 | 8.0 | 12.0 | 0.00 | 0.01 | 0.01 | 88 | 1014.3 |
| 20260505173413 | 42 | 40 | 7.0 | 12.0 | 0.00 | 0.01 | 0.01 | 87 | 1014.5 |
| 20260505173326 | 42 | 59 | 8.0 | 12.0 | 0.00 | 0.01 | 0.01 | 87 | 1014.5 |
| 20260505172438 | 42 | 47 | 9.0 | 12.0 | 0.00 | 0.01 | 0.01 | 88 | 1014.5 |
| 20260505172329 | 42 | 47 | 8.0 | 12.0 | 0.00 | 0.01 | 0.01 | 89 | 1014.5 |
| 20260505171422 | 42 | 55 | 10.0 | 14.0 | 0.01 | 0.01 | 0.01 | 89 | 1014.5 |
| 20260505171314 | 42 | 57 | 10.0 | 14.0 | 0.01 | 0.01 | 0.01 | 89 | 1014.5 |
| 20260505170426 | 42 | 49 | 7.0 | 14.0 | 0.01 | 0.01 | 0.01 | 90 | 1014.6 |
| 20260505170323 | 42 | 63 | 7.0 | 14.0 | 0.01 | 0.01 | 0.01 | 90 | 1014.7 |
| 20260505165417 | 42 | 55 | 8.0 | 13.0 | 0.01 | 0.01 | 0.01 | 91 | 1014.4 |
| 20260505165349 | 42 | 62 | 7.0 | 13.0 | 0.01 | 0.01 | 0.01 | 91 | 1014.4 |
| 20260505164418 | 41 | 65 | 10.0 | 14.0 | 0.01 | 0.01 | 0.01 | 90 | 1014.5 |
| 20260505164329 | 41 | 59 | 11.0 | 14.0 | 0.01 | 0.01 | 0.01 | 90 | 1014.5 |
| 20260505163421 | 42 | 62 | 11.0 | 15.0 | 0.01 | 0.01 | 0.01 | 89 | 1014.5 |
| 20260505163334 | 42 | 59 | 12.0 | 15.0 | 0.01 | 0.01 | 0.01 | 89 | 1014.5 |
| 20260505162424 | 42 | 61 | 10.0 | 14.0 | 0.01 | 0.01 | 0.01 | 88 | 1014.6 |
| 20260505162317 | 42 | 67 | 9.0 | 13.0 | 0.01 | 0.01 | 0.01 | 87 | 1014.6 |
| 20260505161429 | 42 | 61 | 10.0 | 13.0 | 0.00 | 0.00 | 0.00 | 86 | 1014.7 |
| 20260505161327 | 42 | 53 | 10.0 | 13.0 | 0.00 | 0.00 | 0.00 | 86 | 1014.8 |
| 20260505160417 | 42 | 103 | 10.0 | 13.0 | 0.00 | 0.00 | 0.00 | 85 | 1014.5 |
| 20260505160309 | 42 | 81 | 10.0 | 12.0 | 0.00 | 0.00 | 0.00 | 85 | 1014.5 |
| 20260505153315 | 43 | 53 | 7.0 | 13.0 | 0.00 | 0.00 | 0.00 | 89 | 1014.3 |
| 20260505152448 | 43 | 49 | 5.0 | 9.0 | 0.00 | 0.00 | 0.00 | 90 | 1014.3 |
| 20260505152340 | 43 | 59 | 5.0 | 9.0 | 0.00 | 0.00 | 0.00 | 89 | 1014.3 |
| 20260505151430 | 43 | 51 | 5.0 | 12.0 | 0.00 | 0.00 | 0.00 | 89 | 1014.3 |
| 20260505151322 | 43 | 38 | 5.0 | 12.0 | 0.00 | 0.00 | 0.00 | 89 | 1014.2 |
| 20260505150433 | 43 | 57 | 6.0 | 11.0 | 0.00 | 0.00 | 0.00 | 90 | 1014.2 |
| 20260505150310 | 43 | 53 | 5.0 | 11.0 | 0.00 | 0.00 | 0.00 | 89 | 1014.1 |
| 20260505140418 | 43 | 36 | 7.0 | 14.0 | 0.00 | 0.00 | 0.00 | 90 | 1013.7 |
| 20260505140310 | 43 | 59 | 9.0 | 14.0 | 0.00 | 0.00 | 0.00 | 89 | 1013.7 |
| 20260505124408 | 43 | 47 | 10.0 | 17.0 | 0.00 | 0.00 | 0.00 | 87 | 1012.6 |
| 20260505124322 | 43 | 45 | 11.0 | 17.0 | 0.00 | 0.00 | 0.00 | 87 | 1012.6 |
| 20260505123434 | 43 | 29 | 10.0 | 16.0 | 0.00 | 0.00 | 0.00 | 86 | 1012.3 |
| 20260505123310 | 43 | 40 | 10.0 | 16.0 | 0.00 | 0.00 | 0.00 | 86 | 1012.4 |
| 20260505122422 | 43 | 25 | 11.0 | 17.0 | 0.00 | 0.00 | 0.00 | 86 | 1012.3 |
| 20260505122313 | 43 | 18 | 12.0 | 17.0 | 0.00 | 0.00 | 0.00 | 86 | 1012.3 |
| 20260505121425 | 43 | 53 | 10.0 | 15.0 | 0.00 | 0.00 | 0.00 | 86 | 1012.0 |
| 20260505121318 | 43 | 46 | 10.0 | 15.0 | 0.00 | 0.00 | 0.00 | 86 | 1012.0 |
| 20260505120409 | 43 | 42 | 10.0 | 17.0 | 0.00 | 0.00 | 0.00 | 86 | 1011.9 |
| 20260505120323 | 43 | 26 | 9.0 | 17.0 | 0.00 | 0.00 | 0.00 | 86 | 1011.9 |
| 20260505115435 | 43 | 360 | 10.0 | 17.0 | 0.00 | 0.00 | 0.00 | 86 | 1011.7 |
| 20260505115311 | 43 | 36 | 10.0 | 17.0 | 0.00 | 0.00 | 0.00 | 86 | 1011.7 |
| 20260505114422 | 43 | 64 | 10.0 | 16.0 | 0.00 | 0.00 | 0.00 | 86 | 1011.3 |
| 20260505114315 | 43 | 40 | 11.0 | 16.0 | 0.00 | 0.00 | 0.00 | 86 | 1011.3 |
| 20260505113427 | 43 | 28 | 10.0 | 14.0 | 0.00 | 0.00 | 0.00 | 86 | 1011.3 |
| 20260505113321 | 43 | 25 | 10.0 | 14.0 | 0.00 | 0.00 | 0.00 | 86 | 1011.3 |
| 20260505112412 | 43 | 44 | 8.0 | 15.0 | 0.00 | 0.00 | 0.00 | 86 | 1011.3 |
| 20260505112323 | 43 | 38 | 9.0 | 15.0 | 0.00 | 0.00 | 0.00 | 86 | 1011.3 |
| 20260505111414 | 43 | 31 | 9.0 | 14.0 | 0.00 | 0.00 | 0.00 | 86 | 1011.3 |
| 20260505111310 | 43 | 49 | 9.0 | 14.0 | 0.00 | 0.00 | 0.00 | 86 | 1011.3 |
| 20260505110423 | 43 | 24 | 10.0 | 15.0 | 0.00 | 0.00 | 0.00 | 86 | 1011.1 |
| 20260505110315 | 43 | 38 | 9.0 | 14.0 | 0.00 | 0.00 | 0.00 | 86 | 1011.1 |
| 20260505101420 | 43 | 31 | 9.0 | 17.0 | 0.00 | 0.00 | 0.00 | 86 | 1010.4 |
| 20260505101312 | 43 | 30 | 11.0 | 17.0 | 0.00 | 0.00 | 0.00 | 86 | 1010.4 |
| 20260505100423 | 43 | 48 | 13.0 | 20.0 | 0.00 | 0.00 | 0.00 | 87 | 1010.3 |
| 20260505100317 | 43 | 40 | 14.0 | 20.0 | 0.00 | 0.00 | 0.00 | 87 | 1010.3 |
| 20260505095429 | 43 | 65 | 12.0 | 19.0 | 0.00 | 0.00 | 0.00 | 88 | 1010.2 |
| 20260505095320 | 43 | 26 | 14.0 | 19.0 | 0.00 | 0.00 | 0.00 | 88 | 1010.1 |
| 20260505094414 | 43 | 10 | 8.0 | 15.0 | 0.00 | 0.00 | 0.00 | 89 | 1010.3 |
| 20260505094328 | 43 | 15 | 8.0 | 15.0 | 0.00 | 0.00 | 0.00 | 89 | 1010.3 |
| 20260505093419 | 44 | 58 | 11.0 | 18.0 | 0.00 | 0.00 | 0.00 | 89 | 1009.8 |
| 20260505093332 | 44 | 36 | 12.0 | 18.0 | 0.00 | 0.00 | 0.00 | 89 | 1009.8 |
| 20260505092440 | 44 | 44 | 11.0 | 18.0 | 0.00 | 0.00 | 0.00 | 88 | 1009.7 |
| 20260505092312 | 44 | 81 | 12.0 | 18.0 | 0.00 | 0.00 | 0.00 | 88 | 1009.7 |
| 20260505091425 | 44 | 38 | 14.0 | 22.0 | 0.00 | 0.00 | 0.00 | 87 | 1009.4 |
| 20260505091317 | 44 | 46 | 14.0 | 22.0 | 0.00 | 0.00 | 0.00 | 87 | 1009.4 |
| 20260505090449 | 45 | 59 | 15.0 | 22.0 | 0.00 | 0.00 | 0.00 | 88 | 1009.1 |
| 20260505090342 | 45 | 51 | 14.0 | 22.0 | 0.00 | 0.00 | 0.00 | 88 | 1009.1 |
| 20260505085433 | 45 | 43 | 14.0 | 20.0 | 0.00 | 0.00 | 0.00 | 88 | 1009.1 |
| 20260505085345 | 45 | 64 | 13.0 | 20.0 | 0.00 | 0.00 | 0.00 | 88 | 1009.1 |
| 20260505084418 | 46 | 45 | 15.0 | 23.0 | 0.00 | 0.00 | 0.00 | 88 | 1009.3 |
| 20260505084310 | 46 | 42 | 13.0 | 22.0 | 0.00 | 0.00 | 0.00 | 88 | 1009.3 |
| 20260505083420 | 46 | 69 | 17.0 | 22.0 | 0.00 | 0.00 | 0.00 | 86 | 1009.1 |
| 20260505083335 | 46 | 36 | 16.0 | 25.0 | 0.00 | 0.00 | 0.00 | 86 | 1009.1 |
| 20260505082425 | 46 | 52 | 16.0 | 26.0 | 0.00 | 0.00 | 0.00 | 85 | 1009.1 |
| 20260505082317 | 46 | 36 | 16.0 | 26.0 | 0.00 | 0.00 | 0.00 | 85 | 1009.1 |
| 20260505081409 | 47 | 60 | 18.0 | 24.0 | 0.00 | 0.00 | 0.00 | 83 | 1009.3 |
| 20260505081322 | 47 | 35 | 17.0 | 24.0 | 0.00 | 0.00 | 0.00 | 83 | 1009.3 |
| 20260505080413 | 48 | 48 | 12.0 | 17.0 | 0.00 | 0.00 | 0.00 | 81 | 1009.5 |
| 20260505080309 | 48 | 54 | 12.0 | 17.0 | 0.00 | 0.00 | 0.00 | 81 | 1009.5 |
| 20260505075421 | 49 | 72 | 11.0 | 17.0 | 0.00 | 0.00 | 0.00 | 78 | 1009.7 |
| 20260505075311 | 49 | 69 | 11.0 | 17.0 | 0.00 | 0.00 | 0.00 | 77 | 1009.7 |
| 20260505074424 | 50 | 63 | 9.0 | 16.0 | 0.00 | 0.00 | 0.00 | 75 | 1009.7 |
| 20260505074317 | 50 | 33 | 9.0 | 16.0 | 0.00 | 0.00 | 0.00 | 74 | 1009.7 |
| 20260505073429 | 51 | 51 | 10.0 | 16.0 | 0.00 | 0.00 | 0.00 | 71 | 1009.8 |
| 20260505073321 | 51 | 53 | 9.0 | 16.0 | 0.00 | 0.00 | 0.00 | 70 | 1009.8 |
| 20260505072413 | 51 | 47 | 11.0 | 19.0 | 0.00 | 0.00 | 0.00 | 68 | 1009.8 |
| 20260505072330 | 51 | 26 | 10.0 | 19.0 | 0.00 | 0.00 | 0.00 | 67 | 1009.7 |
| 20260505071417 | 52 | 58 | 14.0 | 22.0 | 0.00 | 0.00 | 0.00 | 63 | 1009.7 |
| 20260505071310 | 52 | 42 | 13.0 | 22.0 | 0.00 | 0.00 | 0.00 | 63 | 1009.7 |
| 20260505070423 | 52 | 56 | 9.0 | 21.0 | 0.00 | 0.00 | 0.00 | 61 | 1009.7 |
| 20260505070315 | 53 | 42 | 10.0 | 21.0 | 0.00 | 0.00 | 0.00 | 61 | 1009.7 |
| 20260505065425 | 53 | 49 | 14.0 | 21.0 | 0.00 | 0.00 | 0.00 | 59 | 1009.5 |
| 20260505065318 | 53 | 42 | 15.0 | 21.0 | 0.00 | 0.00 | 0.00 | 59 | 1009.5 |
| 20260505064430 | 53 | 54 | 15.0 | 25.0 | 0.00 | 0.00 | 0.00 | 58 | 1009.3 |
| 20260505064322 | 53 | 58 | 14.0 | 25.0 | 0.00 | 0.00 | 0.00 | 58 | 1009.3 |
| 20260505063416 | 54 | 48 | 22.0 | 28.0 | 0.00 | 0.00 | 0.00 | 56 | 1008.9 |
| 20260505063310 | 54 | 63 | 22.0 | 28.0 | 0.00 | 0.00 | 0.00 | 56 | 1008.8 |
| 20260505062421 | 54 | 61 | 19.0 | 27.0 | 0.00 | 0.00 | 0.00 | 56 | 1008.8 |
| 20260505062313 | 54 | 63 | 18.0 | 27.0 | 0.00 | 0.00 | 0.00 | 56 | 1008.8 |
| 20260505061425 | 54 | 63 | 19.0 | 23.0 | 0.00 | 0.00 | 0.00 | 57 | 1008.7 |
| 20260505061316 | 54 | 54 | 19.0 | 23.0 | 0.00 | 0.00 | 0.00 | 57 | 1008.7 |
| 20260505060408 | 55 | 41 | 16.0 | 28.0 | 0.00 | 0.00 | 0.00 | 56 | 1008.9 |
| 20260505060321 | 55 | 50 | 18.0 | 28.0 | 0.00 | 0.00 | 0.00 | 56 | 1008.9 |
| 20260505055412 | 56 | 44 | 16.0 | 28.0 | 0.00 | 0.00 | 0.00 | 52 | 1008.6 |
| 20260505055326 | 56 | 50 | 16.0 | 28.0 | 0.00 | 0.00 | 0.00 | 52 | 1008.6 |
| 20260505054418 | 57 | 38 | 17.0 | 24.0 | 0.00 | 0.00 | 0.00 | 52 | 1008.3 |
| 20260505054328 | 57 | 42 | 17.0 | 24.0 | 0.00 | 0.00 | 0.00 | 52 | 1008.3 |
| 20260505053419 | 57 | 71 | 17.0 | 30.0 | 0.00 | 0.00 | 0.00 | 51 | 1007.9 |
| 20260505053313 | 57 | 34 | 18.0 | 30.0 | 0.00 | 0.00 | 0.00 | 51 | 1008.0 |
| 20260505052424 | 57 | 40 | 20.0 | 28.0 | 0.00 | 0.00 | 0.00 | 51 | 1007.7 |
| 20260505052337 | 57 | 49 | 21.0 | 28.0 | 0.00 | 0.00 | 0.00 | 51 | 1007.8 |
| 20260505051428 | 57 | 62 | 19.0 | 28.0 | 0.00 | 0.00 | 0.00 | 50 | 1007.6 |
| 20260505051323 | 57 | 55 | 18.0 | 26.0 | 0.00 | 0.00 | 0.00 | 51 | 1007.6 |
| 20260505050435 | 57 | 51 | 23.0 | 33.0 | 0.00 | 0.00 | 0.00 | 50 | 1007.2 |
| 20260505050327 | 57 | 63 | 24.0 | 33.0 | 0.00 | 0.00 | 0.00 | 50 | 1007.1 |
| 20260505041418 | 59 | 41 | 18.0 | 30.0 | 0.00 | 0.00 | 0.00 | 48 | 1006.6 |
| 20260505041312 | 59 | 65 | 17.0 | 30.0 | 0.00 | 0.00 | 0.00 | 47 | 1006.7 |
| 20260505040423 | 59 | 67 | 22.0 | 32.0 | 0.00 | 0.00 | 0.00 | 47 | 1006.5 |
| 20260505040313 | 59 | 61 | 23.0 | 32.0 | 0.00 | 0.00 | 0.00 | 47 | 1006.4 |
| 20260505035445 | 60 | 49 | 22.0 | 30.0 | 0.00 | 0.00 | 0.00 | 47 | 1006.4 |
| 20260505035317 | 60 | 62 | 22.0 | 29.0 | 0.00 | 0.00 | 0.00 | 46 | 1006.4 |
| 20260505034428 | 60 | 56 | 21.0 | 28.0 | 0.00 | 0.00 | 0.00 | 46 | 1006.7 |
| 20260505034340 | 60 | 51 | 19.0 | 28.0 | 0.00 | 0.00 | 0.00 | 47 | 1006.7 |
| 20260505033411 | 61 | 49 | 20.0 | 31.0 | 0.00 | 0.00 | 0.00 | 47 | 1006.3 |
| 20260505033310 | 61 | 46 | 18.0 | 31.0 | 0.00 | 0.00 | 0.00 | 47 | 1006.4 |
| 20260505032422 | 62 | 54 | 23.0 | 33.0 | 0.00 | 0.00 | 0.00 | 47 | 1006.3 |
| 20260505032314 | 62 | 67 | 23.0 | 33.0 | 0.00 | 0.00 | 0.00 | 47 | 1006.3 |
| 20260505031425 | 63 | 42 | 18.0 | 31.0 | 0.00 | 0.00 | 0.00 | 49 | 1005.9 |
| 20260505031318 | 63 | 56 | 19.0 | 32.0 | 0.00 | 0.00 | 0.00 | 48 | 1005.9 |
| 20260505030428 | 64 | 55 | 27.0 | 37.0 | 0.00 | 0.00 | 0.00 | 47 | 1005.7 |
| 20260505030319 | 64 | 61 | 26.0 | 37.0 | 0.00 | 0.00 | 0.00 | 47 | 1005.6 |
| 20260505025426 | 65 | 65 | 21.0 | 36.0 | 0.00 | 0.00 | 0.00 | 47 | 1005.4 |
| 20260505025342 | 65 | 66 | 23.0 | 36.0 | 0.00 | 0.00 | 0.00 | 47 | 1005.4 |
| 20260505024413 | 65 | 63 | 23.0 | 32.0 | 0.00 | 0.00 | 0.00 | 46 | 1005.1 |
| 20260505024345 | 65 | 66 | 21.0 | 32.0 | 0.00 | 0.00 | 0.00 | 46 | 1005.0 |
| 20260505023435 | 66 | 67 | 24.0 | 34.0 | 0.00 | 0.00 | 0.00 | 45 | 1004.7 |
| 20260505023325 | 66 | 71 | 26.0 | 34.0 | 0.00 | 0.00 | 0.00 | 45 | 1004.8 |
| 20260505022414 | 67 | 40 | 18.0 | 30.0 | 0.00 | 0.00 | 0.00 | 43 | 1004.5 |
| 20260505022328 | 67 | 30 | 19.0 | 30.0 | 0.00 | 0.00 | 0.00 | 43 | 1004.5 |
| 20260505021417 | 68 | 47 | 19.0 | 32.0 | 0.00 | 0.00 | 0.00 | 41 | 1003.9 |
| 20260505021327 | 68 | 53 | 18.0 | 32.0 | 0.00 | 0.00 | 0.00 | 40 | 1003.9 |
| 20260505020419 | 69 | 28 | 14.0 | 25.0 | 0.00 | 0.00 | 0.00 | 35 | 1003.3 |
| 20260505020331 | 69 | 22 | 11.0 | 17.0 | 0.00 | 0.00 | 0.00 | 35 | 1003.3 |
| 20260505015420 | 70 | 41 | 12.0 | 21.0 | 0.00 | 0.00 | 0.00 | 34 | 1003.1 |
| 20260505015317 | 70 | 360 | 15.0 | 21.0 | 0.00 | 0.00 | 0.00 | 34 | 1003.1 |
| 20260505014449 | 71 | 9 | 12.0 | 16.0 | 0.00 | 0.00 | 0.00 | 33 | 1002.7 |
| 20260505014321 | 71 | 355 | 12.0 | 16.0 | 0.00 | 0.00 | 0.00 | 33 | 1002.7 |
| 20260505013432 | 73 | 145 | 2.0 | 8.0 | 0.00 | 0.00 | 0.00 | 28 | 1002.6 |
| 20260505013346 | 73 | 145 | 2.0 | 8.0 | 0.00 | 0.00 | 0.00 | 28 | 1002.6 |
| 20260505012413 | 74 | 160 | 4.0 | 11.0 | 0.00 | 0.00 | 0.00 | 28 | 1002.6 |
| 20260505012323 | 74 | 148 | 3.0 | 16.0 | 0.00 | 0.00 | 0.00 | 27 | 1002.6 |
| 20260505011414 | 74 | 202 | 8.0 | 20.0 | 0.00 | 0.00 | 0.00 | 27 | 1002.4 |
| 20260505011327 | 74 | 180 | 8.0 | 20.0 | 0.00 | 0.00 | 0.00 | 26 | 1002.4 |
| 20260505010419 | 75 | 145 | 6.0 | 16.0 | 0.00 | 0.00 | 0.00 | 26 | 1002.4 |
| 20260505010316 | 75 | 140 | 8.0 | 16.0 | 0.00 | 0.00 | 0.00 | 26 | 1002.4 |
| 20260505005428 | 75 | 139 | 8.0 | 15.0 | 0.00 | 0.00 | 0.00 | 26 | 1002.5 |
| 20260505005320 | 75 | 220 | 6.0 | 15.0 | 0.00 | 0.00 | 0.00 | 26 | 1002.5 |
| 20260505004412 | 76 | 54 | 14.0 | 22.0 | 0.00 | 0.00 | 0.00 | 25 | 1002.4 |
| 20260505004324 | 76 | 63 | 12.0 | 22.0 | 0.00 | 0.00 | 0.00 | 25 | 1002.4 |
| 20260505003413 | 76 | 96 | 11.0 | 17.0 | 0.00 | 0.00 | 0.00 | 24 | 1002.3 |
| 20260505003326 | 76 | 100 | 11.0 | 17.0 | 0.00 | 0.00 | 0.00 | 24 | 1002.2 |
| 20260505002418 | 76 | 78 | 11.0 | 18.0 | 0.00 | 0.00 | 0.00 | 24 | 1002.3 |
| 20260505002314 | 76 | 76 | 10.0 | 18.0 | 0.00 | 0.00 | 0.00 | 24 | 1002.2 |
| 20260505001425 | 76 | 98 | 14.0 | 21.0 | 0.00 | 0.00 | 0.00 | 25 | 1002.2 |
| 20260505001318 | 76 | 84 | 15.0 | 21.0 | 0.00 | 0.00 | 0.00 | 25 | 1002.2 |
| 20260505000429 | 76 | 81 | 15.0 | 23.0 | 0.00 | 0.00 | 0.00 | 26 | 1002.3 |
| 20260505000322 | 76 | 80 | 17.0 | 23.0 | 0.00 | 0.00 | 0.00 | 26 | 1002.3 |
| 20260504235412 | 76 | 88 | 14.0 | 22.0 | 0.00 | 0.00 | 0.00 | 27 | 1002.3 |
| 20260504235325 | 76 | 75 | 14.0 | 21.0 | 0.00 | 0.00 | 0.00 | 26 | 1002.3 |